Temp
8 7 7 8 8 8 8 8 8 8 8 9 9 9 9 9 9 9 9 9 9 9 9 9 9 9 9 10 10 10 9 9 9 9 9 9 9 9 9 9 9 9 9
8 7 8 8 8 8 8 8 8 8 8 8 9 9 9 9 9 9 9 9 9 9 9 9 9 9 9 9 9 9 9 9 9 9 9 9 9 9 9 9 9 9 9
8 7 8 8 8 8 8 8 8 8 8 8 8 8 9 9 9 9 9 8 9 9 9 9 9 9 9 9 9 9 9 9 9 9 9 10 10 9 9 9 9 9 9
8 8 8 8 8 8 8 8 8 8 8 8 8 8 8 9 9 8 9 9 9 9 9 9 9 9 9 9 9 9 9 9 9 9 9 9 9 9 9 9 9 9 9
8 8 8 8 8 8 8 8 8 8 8 8 8 8 8 8 8 8 9 8 9 9 9 9 9 9 9 9 9 9 9 10 9 9 9 9 9 9 9 9 9 9 9
8 8 8 8 9 9 8 8 8 8 8 8 8 8 8 8 8 8 8 8 8 8 9 9 9 9 9 9 9 9 10 10 9 9 9 10 9 9 9 9 9 9 9
9 9 9 9 9 8 8 8 8 8 8 8 8 8 8 8 8 8 8 8 8 8 8 9 9 9 9 9 9 9 10 10 10 9 10 10 9 9 10 9 9 9 9
9 9 9 9 9 8 8 8 8 8 8 8 8 8 8 8 8 8 8 8 8 8 8 8 9 9 8 9 9 9 10 10 9 10 10 9 9 10 10 10 10 10 10
9 9 9 9 9 9 8 8 8 8 8 8 8 8 8 8 8 8 8 8 8 8 8 9 9 9 9 9 9 9 10 10 10 9 9 10 10 10 10 10 10 10 10
8 8 9 9 9 8 8 8 8 8 8 8 8 8 7 7 7 7 8 8 8 8 8 9 9 9 9 9 10 10 10 10 10 10 10 10 10 10 11 10 10 10 10
8 8 9 9 9 8 8 8 8 8 8 8 8 8 8 7 7 7 8 8 8 8 8 8 9 9 9 9 9 10 10 10 10 10 10 10 11 11 11 11 11 10 10
8 9 9 8 9 9 9 8 8 8 8 8 8 8 8 8 8 8 8 8 8 8 7 7 8 9 9 9 10 10 10 10 10 10 11 11 11 11 11 11 11 11 11
8 8 8 8 9 9 9 8 8 8 8 8 8 9 8 8 8 8 8 8 8 8 8 7 8 8 9 9 9 9 9 10 10 10 11 10 10 11 11 11 11 11 11
8 9 8 9 9 9 8 9 8 8 9 9 8 8 8 8 8 7 8 8 8 7 7 7 9 9 9 9 9 10 10 10 10 10 10 10 10 11 11 11 11 11 11
7 8 8 8 9 9 8 9 9 8 8 8 8 8 8 8 8 7 8 7 8 7 7 8 8 8 9 9 9 10 10 10 10 10 10 10 10 10 11 11 11 11 11
8 7 8 10 10 9 8 9 9 8 8 7 8 8 8 8 8 7 8 7 7 8 8 8 9 9 9 10 10 10 10 11 10 10 10 10 10 11 10 10 10 10 10
9 8 8 9 9 8 9 9 8 8 8 7 8 8 8 7 7 8 8 8 8 8 8 8 8 8 9 9 9 9 10 10 11 11 10 11 10 10 10 10 10 10 10
9 10 8 9 9 8 9 9 8 7 8 8 8 8 8 8 7 8 8 8 8 8 9 9 8 8 8 9 9 9 10 10 10 11 11 11 10 10 10 10 10 10 9
8 9 9 10 9 8 9 9 8 8 8 8 8 8 8 8 8 8 8 7 8 8 8 8 8 9 9 9 9 9 10 10 10 10 11 11 11 10 10 10 9 9 9
8 8 9 10 10 9 9 8 8 8 9 8 8 8 8 8 8 9 8 8 8 7 8 8 8 8 9 9 9 10 10 10 10 10 10 9 9 9 9 10 10 10 9
8 8 9 11 10 10 9 9 9 9 9 9 9 9 8 8 8 9 8 8 8 7 8 8 8 7 8 9 9 10 10 10 10 9 8 10 10 10 10 10 9 9 9
9 9 10 10 11 10 9 9 9 9 9 9 9 9 8 8 8 9 9 8 8 8 8 8 8 8 8 9 9 9 9 9 9 9 9 10 10 11 11 9 9 9 10
9 10 11 10 10 10 10 9 9 9 9 9 9 9 9 9 9 8 8 8 8 9 9 9 9 8 8 9 9 10 10 10 10 10 10 10 10 11 10 10 9 9 10
9 10 11 10 10 10 9 9 9 9 9 9 9 10 10 10 9 9 9 8 9 9 9 10 9 8 8 9 9 10 10 10 10 9 10 10 10 10 11 10 10 9 10
9 9 10 10 10 10 9 10 9 9 9 9 10 9 9 10 10 9 10 9 9 8 9 10 9 8 8 8 9 10 10 10 10 9 10 10 10 10 10 10 10 10 10
9 9 10 11 10 10 10 10 9 10 10 9 10 9 9 10 10 11 10 10 9 8 9 9 8 8 8 8 9 9 9 9 10 10 10 10 9 10 10 10 9 10 10
Height
3184 3188 3191 3193 3194 3194 3196 3197 3196 3197 3197 3196 3197 3197 3197 3197 3197 3197 3197 3197 3198 3198 3199 3199 3199 3199 3199 3200 3200 3199 3199 3199 3199 3199 3200 3200 3200 3199 3199 3199 3199 3199 3200
3187 3190 3193 3194 3196 3197 3198 3199 3199 3198 3199 3198 3197 3198 3198 3199 3199 3199 3199 3200 3200 3200 3201 3201 3201 3201 3201 3201 3201 3201 3201 3202 3202 3202 3202 3202 3202 3201 3200 3200 3201 3201 3201
3190 3191 3194 3195 3197 3199 3200 3200 3201 3200 3200 3200 3200 3200 3200 3201 3202 3202 3202 3202 3203 3203 3202 3202 3203 3203 3203 3204 3204 3205 3205 3206 3205 3204 3204 3204 3204 3203 3203 3204 3204 3204 3203
3192 3194 3196 3197 3198 3200 3201 3201 3202 3201 3201 3202 3202 3203 3204 3204 3204 3205 3205 3205 3206 3205 3205 3205 3205 3206 3206 3207 3207 3207 3208 3208 3207 3207 3207 3208 3208 3207 3206 3206 3206 3206 3205
3195 3196 3198 3199 3200 3201 3202 3202 3203 3203 3204 3205 3205 3206 3207 3208 3207 3207 3208 3208 3209 3209 3209 3209 3208 3208 3209 3210 3210 3210 3210 3210 3210 3210 3210 3211 3211 3210 3209 3208 3208 3207 3207
3197 3198 3200 3201 3202 3202 3203 3204 3204 3204 3206 3208 3208 3209 3209 3209 3209 3209 3209 3210 3211 3211 3211 3211 3211 3211 3212 3212 3212 3212 3213 3212 3212 3213 3214 3214 3214 3213 3211 3211 3210 3209 3208
3200 3200 3201 3202 3203 3204 3204 3205 3206 3208 3208 3209 3209 3210 3211 3211 3211 3211 3211 3212 3213 3213 3213 3213 3213 3214 3215 3214 3215 3215 3216 3215 3215 3216 3216 3216 3215 3214 3214 3212 3212 3211 3210
3201 3202 3202 3203 3205 3206 3207 3207 3208 3209 3210 3211 3212 3212 3213 3213 3213 3213 3214 3214 3215 3216 3216 3215 3215 3215 3216 3216 3217 3218 3218 3218 3218 3218 3219 3218 3218 3217 3216 3215 3214 3213 3212
3202 3203 3204 3205 3207 3208 3208 3209 3210 3211 3212 3212 3214 3214 3214 3215 3215 3216 3216 3216 3217 3218 3218 3219 3219 3218 3217 3218 3220 3221 3221 3221 3221 3221 3221 3221 3220 3220 3219 3219 3217 3216 3215
3204 3205 3206 3207 3208 3209 3209 3211 3212 3213 3214 3215 3215 3216 3217 3218 3217 3217 3218 3218 3218 3218 3218 3219 3220 3221 3220 3221 3222 3223 3224 3224 3224 3224 3224 3224 3224 3223 3223 3221 3220 3219 3218
3204 3206 3207 3209 3209 3210 3212 3213 3214 3214 3215 3216 3217 3217 3218 3219 3219 3218 3219 3221 3222 3222 3223 3223 3224 3224 3223 3224 3226 3227 3227 3228 3228 3227 3227 3228 3228 3227 3226 3225 3224 3223 3221
3205 3207 3209 3210 3211 3212 3214 3215 3215 3218 3217 3217 3218 3219 3220 3220 3220 3222 3222 3222 3222 3224 3224 3226 3227 3228 3229 3228 3229 3229 3230 3230 3231 3231 3231 3232 3232 3232 3230 3229 3227 3226 3225
3207 3208 3209 3211 3212 3214 3216 3217 3218 3219 3219 3219 3220 3222 3223 3223 3223 3224 3225 3226 3226 3226 3226 3228 3229 3231 3232 3232 3233 3233 3233 3233 3234 3235 3236 3237 3237 3236 3234 3233 3231 3230 3228
3207 3209 3210 3212 3213 3215 3217 3218 3220 3221 3223 3223 3225 3224 3224 3225 3226 3227 3228 3229 3229 3231 3230 3229 3232 3234 3236 3236 3237 3237 3236 3235 3237 3239 3240 3241 3241 3240 3239 3237 3236 3234 3232
3208 3209 3212 3213 3215 3217 3219 3221 3223 3223 3225 3225 3227 3227 3226 3226 3230 3229 3230 3231 3231 3232 3233 3234 3235 3237 3239 3239 3240 3240 3240 3239 3241 3243 3244 3245 3245 3243 3243 3241 3239 3238 3236
3209 3210 3211 3213 3216 3218 3221 3223 3224 3226 3226 3227 3228 3230 3231 3230 3232 3232 3233 3233 3232 3233 3233 3236 3237 3238 3240 3241 3243 3243 3244 3243 3244 3246 3247 3248 3248 3247 3246 3244 3242 3241 3240
3212 3213 3212 3214 3217 3220 3221 3224 3226 3227 3227 3227 3229 3231 3233 3234 3234 3234 3234 3235 3237 3237 3239 3239 3239 3239 3243 3244 3245 3246 3247 3249 3249 3249 3250 3250 3250 3250 3250 3248 3246 3244 3242
3213 3214 3214 3215 3218 3220 3222 3225 3227 3228 3229 3230 3232 3232 3233 3236 3236 3235 3237 3240 3239 3240 3241 3243 3244 3245 3246 3246 3247 3249 3250 3252 3253 3255 3254 3253 3252 3252 3251 3251 3249 3246 3244
3214 3215 3216 3216 3219 3220 3221 3224 3228 3229 3231 3232 3234 3235 3236 3238 3238 3239 3240 3241 3243 3243 3244 3246 3246 3247 3248 3249 3249 3251 3252 3253 3255 3256 3256 3255 3255 3254 3253 3252 3251 3250 3248
3214 3215 3217 3218 3218 3221 3222 3224 3228 3231 3232 3233 3235 3236 3237 3239 3240 3241 3243 3243 3243 3246 3247 3248 3248 3248 3249 3249 3251 3252 3254 3254 3255 3257 3256 3256 3255 3252 3249 3249 3249 3247 3245
3215 3217 3217 3219 3220 3222 3224 3225 3229 3232 3233 3234 3236 3236 3239 3239 3240 3241 3244 3246 3247 3248 3247 3249 3249 3251 3251 3251 3251 3252 3253 3254 3256 3256 3250 3252 3252 3251 3251 3250 3250 3248 3246
3215 3217 3218 3219 3220 3222 3225 3227 3230 3231 3233 3235 3236 3237 3239 3240 3240 3241 3243 3245 3246 3249 3248 3249 3250 3251 3252 3253 3252 3253 3255 3256 3252 3252 3252 3252 3252 3252 3252 3251 3251 3250 3249
3215 3216 3218 3219 3220 3222 3225 3227 3230 3232 3233 3235 3236 3237 3238 3239 3241 3241 3243 3244 3246 3247 3248 3249 3250 3252 3252 3252 3253 3253 3253 3253 3253 3252 3252 3252 3251 3251 3251 3251 3252 3249 3248
3215 3217 3217 3219 3220 3222 3225 3227 3230 3232 3234 3235 3235 3237 3238 3239 3240 3242 3243 3244 3245 3246 3247 3249 3250 3251 3252 3251 3253 3253 3254 3255 3254 3253 3252 3251 3251 3251 3251 3252 3251 3248 3247
3215 3216 3216 3218 3220 3222 3225 3227 3230 3231 3233 3235 3236 3237 3238 3238 3240 3240 3241 3242 3244 3245 3247 3248 3250 3250 3250 3250 3251 3251 3252 3253 3254 3253 3252 3251 3251 3252 3251 3250 3248 3246 3245
3213 3215 3216 3217 3220 3221 3224 3226 3228 3231 3232 3234 3235 3235 3237 3237 3238 3240 3240 3241 3242 3244 3246 3247 3249 3249 3248 3249 3249 3250 3250 3252 3251 3252 3251 3250 3249 3249 3248 3248 3247 3244 3240
Wind_Speed
33 30 30 27 26 23 21 17 17 18 17 18 18 18 18 19 19 19 19 20 20 20 20 20 20 20 19 20 20 20 20 20 20 19 18 17 17 17 17 17 16 16 14
25 24 22 20 20 19 18 16 16 16 15 17 18 18 18 18 18 18 19 18 19 19 19 18 18 19 20 20 20 19 19 19 19 20 18 17 16 17 18 18 17 17 16
19 19 18 17 16 15 14 14 14 15 15 16 17 17 17 17 16 17 17 18 18 18 17 17 17 18 19 18 18 18 17 18 19 20 19 17 18 19 19 18 18 18 17
17 16 14 13 11 10 10 11 12 14 15 16 17 17 17 16 16 16 16 17 17 17 16 17 17 17 18 18 16 18 18 17 19 20 20 18 18 19 20 19 18 18 17
16 14 11 10 9 8 8 10 13 14 15 16 17 17 15 15 16 16 16 16 17 17 16 17 17 16 16 17 18 17 18 19 20 21 19 19 18 19 20 19 18 17 16
14 12 9 8 8 10 11 13 15 16 15 16 16 16 15 16 16 15 16 16 17 17 16 16 17 16 16 16 17 18 19 21 21 20 19 19 18 18 19 17 16 15 13
11 10 9 10 12 13 14 15 16 16 17 16 15 15 15 15 16 17 18 17 18 18 17 16 14 16 16 15 19 18 20 22 21 19 18 18 17 17 17 16 15 14 13
10 11 13 14 15 14 15 16 17 17 17 16 15 15 14 15 17 18 19 19 19 18 17 17 16 17 18 19 19 19 21 22 21 20 18 17 17 17 16 15 15 15 15
14 14 15 16 16 16 16 18 18 18 15 15 15 15 15 16 18 19 19 20 20 18 16 15 15 18 20 22 21 22 20 21 21 20 18 17 18 17 17 17 18 18 18
14 13 14 15 16 15 16 17 17 15 15 13 14 16 17 16 18 19 19 20 20 19 18 18 17 18 21 24 24 22 21 20 21 20 20 19 19 19 19 20 20 21 20
13 14 14 14 16 15 14 14 14 15 13 12 12 15 18 17 17 19 19 17 16 15 18 17 17 20 24 23 23 22 22 21 21 22 21 20 20 20 21 22 22 22 21
10 13 14 14 15 15 15 15 16 14 13 13 13 12 14 16 15 16 19 17 15 17 18 16 18 18 21 23 22 23 23 23 22 22 22 21 21 21 23 23 25 24 23
9 15 14 15 14 15 14 15 14 12 9 10 12 12 11 11 14 15 15 15 13 13 15 19 21 20 20 22 21 21 22 23 22 21 22 21 21 21 22 23 24 24 23
6 15 14 13 14 16 14 14 13 10 11 12 14 11 12 10 15 15 12 14 15 24 22 18 21 20 20 20 20 20 22 23 21 21 20 19 19 20 21 22 23 23 23
4 15 17 16 16 16 14 13 15 13 16 13 12 11 10 15 16 15 21 19 22 26 21 19 16 15 18 18 19 20 20 23 21 21 19 18 18 19 20 21 22 22 23
3 14 12 14 15 15 16 15 14 14 14 10 11 12 15 14 16 20 20 16 22 22 27 23 21 19 18 16 17 18 17 21 22 20 19 18 18 19 19 20 21 22 22
12 12 10 10 11 19 20 16 14 10 12 11 12 12 14 15 13 15 17 22 22 22 21 22 21 19 16 16 15 14 15 15 17 19 19 19 18 17 16 18 19 20 21
3 9 9 11 14 20 21 19 17 11 10 10 10 7 11 12 11 16 18 24 22 20 19 19 18 16 16 17 16 14 14 14 12 14 15 14 16 15 15 14 14 16 18
2 4 8 13 15 18 15 15 16 15 14 11 10 13 11 12 11 9 15 11 15 15 16 16 15 17 17 15 16 15 13 13 12 10 12 12 12 12 13 13 12 15 16
3 2 7 14 17 18 17 16 13 13 15 11 10 11 9 13 7 12 17 14 15 12 13 15 12 12 13 13 14 13 11 12 13 13 12 9 9 9 10 7 8 8 7
5 5 7 14 17 16 15 13 12 11 12 13 11 11 9 7 6 9 15 16 14 13 16 16 13 6 10 12 13 15 15 15 12 10 6 7 5 5 1 3 7 7 6
4 6 6 15 17 16 15 15 14 12 10 9 11 11 12 9 7 8 10 11 10 12 17 16 14 10 10 10 11 12 12 13 11 10 7 4 2 3 4 5 7 12 14
3 6 6 14 17 15 16 15 15 13 13 13 10 9 10 9 10 9 8 5 10 11 16 15 15 13 12 12 12 11 13 12 8 6 3 4 7 7 7 8 9 13 16
2 4 6 14 18 16 13 13 14 10 16 12 9 9 9 9 9 10 10 9 8 9 10 13 15 18 15 15 12 11 9 8 9 7 7 6 8 10 9 10 14 15 15
6 1 4 13 15 14 14 14 10 11 10 6 8 7 7 7 8 10 8 9 10 4 9 11 14 18 17 17 15 14 9 7 11 11 12 14 15 14 10 13 17 14 12
8 6 6 9 12 15 15 12 12 11 9 7 9 11 6 6 8 9 9 8 10 10 9 10 14 14 15 19 19 17 13 13 13 12 10 12 19 18 16 12 13 6 17
Wind_Direction
113 114 117 120 122 125 121 118 107 106 109 103 98 99 106 107 105 107 108 109 108 107 105 104 106 107 106 106 106 105 102 99 99 99 104 107 105 105 105 104 101 98 97
116 116 117 119 119 121 121 119 114 112 106 105 106 102 101 103 105 105 108 107 107 107 106 104 103 102 102 102 103 103 102 104 107 109 108 106 107 101 98 96 94 94 94
115 116 120 116 113 112 114 117 120 113 109 105 105 107 111 108 107 106 107 108 106 104 103 102 101 104 103 103 102 104 102 105 107 105 104 102 102 100 97 95 94 94 94
121 120 116 113 113 115 114 118 121 114 108 107 106 107 107 109 110 110 107 106 105 104 104 103 105 107 104 107 105 112 110 106 103 101 101 102 103 101 97 94 92 91 89
128 124 121 117 117 119 121 125 125 119 115 109 105 105 106 107 103 105 110 108 107 107 107 104 106 108 104 103 103 113 110 106 102 101 102 101 96 96 94 90 86 83 81
133 129 127 128 127 120 116 120 119 119 119 115 102 100 103 105 105 107 109 109 109 109 109 106 110 109 108 111 114 114 113 108 104 101 99 94 94 91 88 87 84 83 82
135 133 133 129 125 119 115 115 120 121 119 113 104 99 107 105 104 104 104 106 110 112 112 108 105 103 101 106 108 112 111 106 102 98 96 94 92 90 87 85 84 81 81
137 129 127 124 119 117 117 121 126 125 122 115 105 99 100 100 101 103 103 107 110 111 113 114 110 104 106 112 116 115 114 109 103 97 94 92 90 86 85 85 83 80 75
132 126 128 126 121 120 125 128 127 124 120 115 105 100 99 101 102 105 108 111 113 113 112 108 106 109 114 120 121 118 111 105 100 99 94 91 88 88 88 85 81 77 74
131 131 132 126 119 120 119 124 126 124 121 112 108 108 104 104 107 113 115 118 120 121 118 111 108 108 110 121 121 115 110 104 100 98 93 89 89 89 87 85 81 80 77
142 144 139 127 123 122 115 118 119 115 107 106 114 117 118 116 116 121 118 114 112 107 97 92 101 115 116 118 118 116 111 107 103 96 92 89 89 89 85 82 80 78 73
159 158 144 135 128 121 122 114 113 119 120 119 120 123 122 126 130 120 121 124 119 111 101 97 102 110 112 115 115 111 107 103 97 93 92 93 91 88 84 80 77 73 69
151 156 152 145 133 124 126 124 122 116 114 117 115 117 119 123 128 117 116 113 118 117 114 116 117 118 121 120 117 113 109 104 98 97 97 95 90 86 82 78 75 71 68
145 154 148 152 143 140 136 138 130 113 102 106 99 119 133 144 125 103 112 104 99 108 115 120 126 126 124 119 118 116 112 105 100 100 99 95 91 87 82 78 74 70 65
135 146 152 155 161 149 141 139 124 127 109 108 112 115 114 142 114 100 117 113 104 114 109 112 115 123 121 122 120 115 110 106 105 104 100 95 92 86 82 78 74 69 63
188 161 157 160 162 160 154 142 130 123 126 120 119 125 128 128 113 116 138 137 119 119 116 118 118 116 113 114 114 108 108 113 115 111 106 98 91 86 82 79 73 67 61
129 164 161 161 149 152 148 137 131 124 109 89 117 121 128 124 122 133 142 139 127 111 113 116 112 105 112 112 109 112 107 111 116 117 112 108 98 88 79 75 71 67 60
146 143 168 173 151 158 159 140 142 146 133 123 137 117 127 132 139 131 139 133 117 125 121 119 112 113 110 113 107 105 109 113 111 105 105 102 99 93 77 58 55 59 60
59 112 158 167 159 164 147 145 148 154 150 143 131 124 134 145 133 146 139 133 126 123 148 128 129 127 121 111 112 105 115 121 120 113 109 102 92 82 71 59 41 32 35
290 327 185 176 167 167 146 156 155 151 144 141 148 127 130 132 150 143 145 139 154 152 159 167 145 128 124 112 113 115 124 117 128 129 119 95 76 87 82 79 58 48 51
244 285 205 174 164 168 160 169 156 158 142 151 148 130 139 155 156 142 163 169 173 178 166 175 159 160 156 136 119 127 127 132 127 113 107 137 146 118 60 41 17 6 12
246 262 231 185 171 174 167 160 156 158 161 161 156 155 153 170 156 153 146 165 187 187 179 184 179 176 178 140 140 143 137 122 144 143 157 177 214 209 285 338 354 346 340
285 261 220 191 183 180 179 173 173 166 164 164 163 166 173 172 168 173 195 172 196 183 190 196 192 190 200 199 182 174 165 165 196 196 190 245 253 272 287 307 320 312 316
227 248 199 200 193 192 178 184 176 172 185 178 172 175 189 186 196 178 181 187 192 179 192 197 197 205 210 219 215 218 209 215 229 245 275 269 272 296 293 327 322 302 292
204 190 225 200 207 196 187 188 186 183 176 179 185 184 187 192 203 196 201 189 192 178 192 200 205 208 217 228 228 238 232 228 249 233 257 275 279 294 315 318 332 250 278
198 172 189 204 202 210 202 206 203 195 196 191 187 179 215 206 222 221 196 184 201 217 222 201 199 198 210 227 241 241 242 240 250 243 247 259 261 270 272 278 310 331 296